RH
48 50 50 42 12 11 11 12 34 30 25 28 65 54 60 63 83 83 72 13 6 9 13 14 14 15 15 16 17 20 26 30 40 48 49 32 31 17 13 12 13 14 15
62 53 51 39 13 11 11 11 30 41 29 25 63 75 68 79 86 83 65 9 9 14 14 15 26 18 18 19 20 23 21 19 20 21 18 37 23 13 14 15 16 17 18
64 57 55 44 22 12 11 11 24 42 30 21 54 70 75 70 84 79 53 8 13 14 15 43 52 18 18 18 17 16 14 14 14 22 40 15 15 16 17 19 20 20 21
57 58 57 49 34 16 12 11 13 29 15 14 53 61 77 68 72 78 35 10 15 14 20 23 18 18 17 14 14 14 14 14 15 14 16 17 18 20 21 21 21 21 22
54 56 58 54 41 23 15 12 12 14 14 18 36 54 72 65 67 84 30 13 16 15 17 18 18 15 14 15 15 15 15 15 17 18 21 21 20 19 18 18 20 22 24
54 52 60 54 44 29 19 13 13 13 16 18 12 43 52 58 63 88 21 15 15 16 18 18 15 14 15 17 17 18 20 22 19 20 19 19 19 18 17 18 19 17 18
59 52 58 57 46 35 26 15 14 13 13 17 17 15 54 53 69 86 14 15 16 18 19 16 15 14 16 22 24 21 19 19 18 19 20 21 15 11 9 8 9 11 12
60 50 60 58 51 42 34 18 15 14 14 15 22 34 66 44 88 58 14 16 17 19 16 15 15 19 22 23 24 23 21 20 22 23 21 17 13 10 10 15 13 10 9
55 56 59 62 59 54 43 22 16 15 16 15 44 61 72 61 96 19 18 17 19 17 15 15 21 22 23 26 24 22 22 23 25 26 25 21 20 28 33 36 36 32 22
59 51 54 64 65 65 46 25 16 17 17 19 63 73 70 83 80 14 19 20 19 15 15 21 23 24 26 25 24 24 25 26 28 28 30 32 33 38 43 45 46 51 50
61 56 57 64 77 75 56 28 18 20 20 54 83 78 71 98 39 19 20 22 16 16 22 24 25 27 27 24 23 24 23 21 24 26 30 31 32 36 41 45 49 52 52
72 59 43 62 84 79 74 32 19 36 30 84 85 80 70 90 13 20 24 21 16 23 27 26 26 26 24 23 22 22 22 20 22 23 24 27 32 34 39 45 49 58 66
87 71 45 57 85 91 90 38 21 62 61 89 87 71 56 34 16 21 24 18 20 28 27 30 30 30 28 26 25 24 22 21 22 25 27 28 30 35 44 47 47 48 53
96 80 71 64 66 98 92 48 26 63 56 82 86 69 36 13 20 21 23 16 25 28 35 39 39 41 41 37 37 32 32 29 28 27 28 28 30 33 37 42 48 52 50
98 87 80 69 64 100 93 62 48 68 66 82 90 54 22 14 21 23 20 21 25 36 44 44 43 44 42 41 42 42 43 43 43 43 42 41 40 38 37 38 41 45 52
91 100 78 77 71 94 99 82 55 67 72 70 83 47 15 18 20 24 17 26 34 43 45 46 47 48 49 48 48 48 48 48 48 48 49 49 50 51 50 47 44 44 48
86 98 94 81 84 81 100 86 59 68 81 70 67 41 15 20 21 23 20 32 44 42 46 50 51 51 50 50 50 50 50 50 50 51 50 51 52 53 57 60 59 61 55
89 82 100 86 84 72 100 90 52 73 84 82 34 21 16 21 24 20 28 43 43 45 51 51 52 51 50 49 48 48 48 49 50 51 53 55 57 56 58 62 69 80 78
85 95 97 99 94 91 98 94 58 71 85 55 20 19 19 23 26 20 31 42 42 50 52 52 51 50 50 49 49 48 48 49 53 59 62 66 75 80 87 91 92 86 71
83 76 84 94 96 89 98 98 52 65 82 35 19 19 21 27 27 22 32 39 50 52 52 52 51 50 50 50 49 48 48 50 65 72 70 75 78 79 85 89 95 89 79
61 84 97 100 100 100 85 85 60 32 32 28 20 19 22 26 22 26 39 48 51 52 52 51 51 50 50 50 49 48 50 60 71 73 72 77 76 75 85 87 89 89 96
58 80 90 92 100 96 82 85 57 32 23 21 20 20 23 26 20 30 44 50 52 52 52 51 51 51 50 49 48 51 58 68 74 81 79 73 77 76 83 88 89 82 81
57 80 84 84 100 99 94 82 53 33 24 21 20 22 28 30 23 35 46 52 53 52 52 52 52 51 50 48 52 67 76 80 87 87 79 76 70 66 78 87 95 92 99
56 77 70 80 99 99 94 73 53 33 26 22 21 25 32 29 26 38 48 52 53 53 53 52 52 51 49 56 76 71 79 89 94 91 71 68 68 64 75 89 88 91 99
71 78 67 64 97 100 97 72 69 41 38 24 26 29 34 30 26 38 47 52 53 53 52 51 51 51 56 67 78 77 70 71 79 87 75 64 58 60 62 75 75 81 85
73 69 82 58 99 98 99 85 74 53 60 52 34 28 33 32 26 35 44 49 51 51 50 50 52 73 82 75 62 74 77 69 75 76 67 63 52 61 64 65 62 62 59
Wind_Speed
18 8 12 12 11 12 12 13 13 13 12 12 12 13 12 11 11 9 7 6 8 9 9 9 10 11 12 12 12 12 12 13 12 10 9 8 9 9 9 10 10 11 11
19 17 10 12 12 12 13 14 14 14 13 14 13 13 12 11 11 7 6 8 9 8 8 10 11 11 11 11 11 11 11 10 10 9 8 9 9 10 10 11 12 11 12
24 21 17 13 13 14 15 15 15 15 15 15 15 13 12 11 9 7 6 9 8 7 9 11 10 10 10 10 10 10 10 10 10 10 11 10 10 12 11 11 12 12 12
10 24 22 15 15 16 17 17 17 16 16 17 17 14 13 11 10 9 7 10 8 8 9 9 9 9 10 10 11 11 11 11 11 10 12 11 11 11 11 10 11 11 12
17 16 24 21 17 19 20 20 19 18 18 17 19 17 15 11 11 9 8 10 9 9 9 8 8 9 11 12 12 11 11 12 12 12 11 11 11 10 10 11 12 12 12
37 19 20 24 21 21 22 22 21 20 19 18 19 20 16 14 13 11 9 9 9 9 9 8 9 11 12 13 12 12 11 11 11 11 11 11 11 11 12 13 13 13 12
25 19 12 24 24 24 25 24 22 22 20 19 19 21 19 16 15 13 11 10 11 11 10 9 10 11 13 13 12 11 11 10 12 12 11 12 12 13 14 14 14 14 13
37 36 21 23 27 26 27 25 25 24 22 19 18 21 21 18 17 15 14 13 12 11 11 11 13 13 13 12 11 11 12 11 13 13 13 12 13 14 15 15 15 16 15
35 44 36 25 30 29 28 27 27 25 23 21 21 23 24 21 20 18 16 15 13 13 13 14 14 13 12 12 11 11 12 12 13 12 12 12 13 13 13 14 14 15 15
35 37 48 36 32 31 31 30 29 27 25 24 25 27 25 24 21 21 19 17 15 16 17 16 14 13 12 12 11 11 10 11 11 11 11 10 11 11 12 13 14 15 15
36 39 46 43 33 35 34 33 31 29 28 29 29 28 26 26 23 23 21 19 18 20 19 17 15 14 12 11 11 10 9 9 10 9 9 9 9 10 11 12 13 14 15
39 39 44 44 38 37 37 36 34 32 32 32 32 30 29 27 26 25 24 22 22 22 20 18 16 15 14 12 11 10 8 7 8 8 8 8 10 11 12 13 14 14 15
35 40 41 48 49 42 42 39 38 34 34 35 34 31 30 29 30 28 26 25 25 23 21 19 17 16 14 13 11 8 7 7 8 6 7 8 9 10 12 13 14 14 14
40 45 41 46 64 48 43 40 40 37 37 36 35 34 32 34 32 30 26 26 25 24 22 20 18 16 14 12 10 8 7 7 7 6 7 8 9 10 11 12 13 14 15
43 46 48 50 74 35 40 41 41 38 37 37 36 36 34 35 32 29 27 27 27 25 23 20 18 15 13 11 9 7 5 4 5 4 6 7 9 10 11 12 13 13 14
52 34 46 49 64 44 38 43 44 41 39 39 38 38 36 35 33 30 30 30 29 27 24 21 17 14 12 9 7 4 2 2 5 6 7 9 10 11 12 12 13 13 14
50 62 46 48 56 55 31 48 46 45 41 39 41 41 39 37 34 31 32 33 30 27 24 20 17 14 11 8 5 2 1 4 6 9 9 10 12 13 13 13 13 14 15
51 51 36 46 51 56 26 46 47 44 42 42 46 40 38 36 35 35 36 36 32 28 24 20 16 13 10 7 3 2 4 6 9 11 13 14 14 15 15 15 14 17 14
53 49 41 24 45 50 45 46 51 48 45 47 42 39 39 39 35 39 39 37 33 28 24 20 16 13 9 6 4 5 7 9 12 14 14 13 14 16 17 19 21 20 15
49 59 46 31 53 56 47 47 50 50 49 49 41 42 43 43 39 41 40 36 32 28 24 19 16 12 9 7 7 8 11 13 14 14 14 15 19 20 19 18 17 17 17
52 45 43 30 56 58 57 51 49 51 45 42 41 42 44 41 40 41 39 36 32 28 24 20 16 12 10 9 9 12 14 14 17 13 15 18 21 17 17 16 15 15 15
53 46 34 39 46 38 62 47 42 42 42 40 42 42 43 39 40 42 40 38 34 29 25 20 17 14 12 12 13 14 17 16 16 15 15 16 15 19 19 18 16 15 15
48 38 27 53 42 49 51 39 40 40 40 41 43 44 43 41 42 44 43 39 34 29 24 21 18 16 16 15 13 16 17 18 19 17 17 15 17 20 17 17 17 19 21
40 29 30 47 26 49 63 52 42 44 44 42 42 43 44 44 45 45 44 39 34 31 27 24 22 20 19 14 16 18 20 18 22 22 18 18 21 19 17 17 17 15 14
31 27 22 36 40 47 55 48 42 45 42 41 43 44 45 44 45 46 44 39 36 33 30 26 23 22 19 12 13 18 20 21 18 21 22 19 20 19 18 16 17 15 15
31 24 21 34 35 37 38 42 42 43 41 44 43 44 45 45 47 47 43 41 39 35 30 27 25 20 18 20 15 17 24 20 19 20 22 20 19 18 18 17 16 16 16
Wind_Direction
252 286 246 252 236 228 212 197 190 187 186 174 173 164 161 156 152 145 134 114 112 106 102 108 113 116 117 117 116 115 117 120 119 112 98 92 86 79 72 70 68 63 59
246 251 259 234 230 233 222 203 194 188 190 176 180 171 164 158 156 151 133 126 124 116 115 121 119 122 118 117 117 116 117 117 113 105 99 92 85 81 74 72 67 63 60
239 245 251 234 232 225 222 211 199 193 193 181 183 188 173 168 165 163 146 138 133 122 127 123 128 123 121 120 121 120 116 112 110 110 98 89 84 78 74 70 66 61 56
260 238 240 236 226 224 219 213 206 199 198 187 182 192 182 176 175 174 161 155 142 132 131 130 127 125 124 121 118 117 117 114 105 98 96 90 84 79 75 71 66 61 56
242 238 233 236 224 218 218 212 207 203 200 193 184 192 191 187 186 186 178 161 146 138 138 135 136 132 127 122 119 118 115 109 107 100 93 88 80 74 68 64 59 57 55
244 229 226 228 223 214 214 211 210 206 204 199 190 192 198 190 191 192 185 168 155 149 143 147 141 137 129 123 121 116 113 105 99 91 85 78 71 65 61 59 56 52 47
234 227 234 227 219 209 209 209 209 209 207 204 195 192 191 193 193 192 186 177 162 157 151 150 144 137 129 123 119 116 108 100 94 89 85 79 72 65 58 52 48 45 43
235 238 234 230 220 210 208 206 207 208 207 203 197 185 191 191 193 192 184 176 168 162 158 152 145 138 133 127 123 117 107 101 95 91 86 76 67 62 58 52 51 47 42
241 239 243 244 219 213 210 205 206 205 205 200 189 186 194 188 194 188 181 177 171 166 159 153 147 143 137 130 125 119 112 102 92 88 82 74 68 62 54 49 46 42 38
232 236 246 251 219 215 212 208 204 202 199 195 187 190 193 191 192 185 178 177 173 166 160 155 152 146 139 133 126 120 113 105 99 91 83 75 66 58 51 45 40 37 34
232 230 231 244 225 216 215 210 203 200 195 191 189 192 196 192 191 185 178 178 174 166 161 157 154 147 139 132 127 122 117 113 98 87 77 66 54 45 40 36 33 31 30
230 225 233 232 232 220 215 211 204 197 194 189 193 191 196 195 191 186 180 180 174 166 162 159 153 145 140 137 132 127 117 107 96 83 68 53 41 32 27 25 25 24 23
228 228 235 225 237 220 217 210 204 194 195 190 195 195 196 193 192 187 184 180 174 167 164 157 152 147 144 139 136 128 120 97 87 75 55 40 31 24 20 17 17 17 18
227 215 228 225 233 221 217 210 202 196 197 196 195 198 196 194 191 189 186 181 175 168 162 159 155 151 149 142 135 125 108 92 80 52 36 23 14 9 6 4 3 6 8
232 221 212 224 231 195 218 213 202 198 199 196 199 201 196 194 193 190 185 180 175 169 166 166 161 158 153 146 138 126 103 75 54 38 13 358 352 347 345 344 346 349 351
223 227 218 225 230 220 207 213 206 200 200 200 202 204 195 195 194 190 186 180 177 173 172 170 166 164 163 161 151 140 103 30 356 356 339 334 330 324 323 324 326 329 332
224 234 212 225 224 228 219 214 207 203 201 201 203 204 196 195 194 191 187 181 181 179 175 176 175 175 174 169 162 154 1 335 333 322 324 314 308 302 302 303 308 317 321
228 219 200 217 218 225 193 203 205 204 202 204 206 200 198 198 194 191 187 185 184 180 181 182 184 186 182 182 179 261 309 319 312 310 307 309 304 302 298 296 301 308 308
230 227 228 216 217 198 191 204 204 202 205 211 202 198 197 199 196 193 189 190 184 185 187 189 192 193 191 200 229 272 291 295 302 303 295 296 306 311 303 300 301 296 290
233 226 240 236 218 206 188 201 209 202 203 207 199 196 198 198 196 196 194 189 189 191 193 195 199 204 208 223 251 274 289 298 299 291 289 299 309 312 315 309 302 299 295
232 227 242 230 188 195 203 201 211 211 208 205 200 196 199 201 198 197 195 193 195 197 200 202 206 214 228 243 264 277 288 290 290 298 304 301 305 315 312 312 302 300 302
226 222 252 233 207 196 197 203 210 210 207 202 200 198 201 202 200 198 197 199 201 203 205 210 215 226 242 256 267 282 284 281 284 303 301 307 310 317 314 308 301 302 296
225 219 245 222 198 204 188 195 207 205 203 201 199 199 200 201 201 201 202 205 207 209 213 220 226 238 246 257 273 277 278 283 291 291 299 313 314 313 311 310 312 309 286
218 232 233 236 207 192 194 195 203 207 202 199 201 198 202 202 202 204 207 209 213 216 220 227 233 241 251 257 263 278 281 280 288 294 298 305 312 311 309 308 301 299 296
207 236 221 231 206 186 198 193 202 205 203 202 201 201 205 206 205 208 211 213 217 223 226 232 241 248 253 252 256 248 269 287 284 283 296 299 307 305 304 303 298 290 293
207 223 228 221 211 213 197 199 203 202 201 202 203 205 207 209 209 212 213 217 222 226 232 236 241 239 252 246 273 258 257 281 281 284 294 296 297 298 300 300 298 299 302